FW6934 Weather Reports


time (UTC)temp
C
wind
direction
speed
KPH
gust
KPH
rain 1hr
cm
rain 24hr
cm
rain mn
cm
humidity
%
barometer
mb
20260506201532 18 355 1.6 9.7 0.00 0.00 0.00 69 1008.1
20260506201007 20 180 0.0 11.3 0.00 0.00 0.00 66 1008.3
20260506200558 20 190 3.2 11.3 0.00 0.00 0.00 71 1008.3
20260506200014 18 40 3.2 9.7 0.00 0.00 0.00 72 1008.3
20260506195604 18 155 0.0 9.7 0.00 0.00 0.00 70 1008.5
20260506195051 18 154 4.8 9.7 0.00 0.00 0.00 71 1008.5
20260506194525 18 192 3.2 6.4 0.00 0.00 0.00 72 1008.6
20260506194006 18 267 3.2 6.4 0.00 0.00 0.00 70 1008.8
20260506193555 18 84 3.2 6.4 0.00 0.00 0.00 69 1008.8
20260506193005 18 16 0.0 8.0 0.00 0.00 0.00 72 1008.7
20260506192556 18 86 3.2 8.0 0.00 0.00 0.00 72 1008.7
20260506192032 17 342 0.0 6.4 0.00 0.00 0.00 73 1008.8
20260506191554 17 305 1.6 6.4 0.00 0.00 0.00 75 1008.8
20260506191039 17 5 1.6 4.8 0.00 0.00 0.00 73 1008.7
20260506190525 17 85 0.0 8.0 0.00 0.00 0.00 75 1008.7
20260506190032 17 261 1.6 8.0 0.00 0.00 0.00 76 1008.7
20260506185520 17 87 0.0 11.3 0.00 0.00 0.00 74 1008.8
20260506185009 17 195 3.2 11.3 0.00 0.00 0.00 74 1008.7
20260506184528 17 278 4.8 11.3 0.00 0.00 0.00 75 1008.8
20260506184019 16 72 3.2 8.0 0.00 0.00 0.00 75 1008.6
20260506183505 16 301 3.2 8.0 0.00 0.00 0.00 75 1008.5
20260506183045 16 193 1.6 8.0 0.00 0.00 0.00 75 1008.5
20260506182523 16 123 1.6 8.0 0.00 0.00 0.00 76 1008.6
20260506182011 16 184 1.6 6.4 0.00 0.00 0.00 75 1008.7
20260506181537 16 121 1.6 8.0 0.00 0.00 0.00 77 1008.7
20260506181019 16 148 1.6 9.7 0.00 0.00 0.00 76 1008.8
20260506180507 16 114 1.6 9.7 0.00 0.00 0.00 73 1008.8
20260506180028 17 290 3.2 8.0 0.00 0.00 0.00 74 1008.9
20260506175514 16 161 1.6 6.4 0.00 0.00 0.00 76 1008.8
20260506175057 16 158 0.0 9.7 0.00 0.00 0.00 76 1008.8
20260506174513 16 162 1.6 9.7 0.00 0.00 0.00 75 1008.8
20260506174002 16 278 3.2 8.0 0.00 0.00 0.00 76 1008.8
20260506173551 16 256 1.6 6.4 0.00 0.00 0.00 76 1008.8
20260506173010 16 306 0.0 4.8 0.00 0.00 0.00 76 1008.6
20260506172556 16 65 1.6 4.8 0.00 0.00 0.00 77 1008.6
20260506172015 16 319 1.6 8.0 0.00 0.00 0.00 78 1008.5
20260506171542 15 347 1.6 8.0 0.00 0.00 0.00 78 1008.6
20260506171009 15 170 1.6 6.4 0.00 0.00 0.00 78 1008.5
20260506170555 15 134 3.2 6.4 0.00 0.00 0.00 78 1008.5
20260506170014 15 169 0.0 4.8 0.00 0.00 0.00 80 1008.7
20260506165603 15 172 0.0 4.8 0.00 0.00 0.00 79 1008.7
20260506165051 15 173 1.6 8.0 0.00 0.00 0.00 79 1008.7
20260506164510 15 184 1.6 8.0 0.00 0.00 0.00 79 1008.7
20260506164102 15 49 0.0 3.2 0.00 0.00 0.00 79 1008.8
20260506163545 15 49 0.0 3.2 0.00 0.00 0.00 79 1008.7
20260506163003 15 49 0.0 3.2 0.00 0.00 0.00 79 1008.6
20260506162555 15 49 1.6 3.2 0.00 0.00 0.00 80 1008.7
20260506162041 15 49 0.0 4.8 0.00 0.00 0.00 80 1008.7
20260506161511 15 49 1.6 4.8 0.00 0.00 0.00 80 1008.7
20260506161102 15 48 1.6 4.8 0.00 0.00 0.00 80 1008.6
20260506160541 15 25 0.0 4.8 0.00 0.00 0.00 80 1008.5
20260506160115 14 71 1.6 6.4 0.00 0.00 0.00 81 1008.2
20260506155548 14 51 1.6 4.8 0.00 0.00 0.00 81 1008.4
20260506155034 14 294 0.0 3.2 0.00 0.00 0.00 81 1008.3
20260506154604 13 286 0.0 4.8 0.00 0.00 0.00 81 1008.0
20260506154046 13 286 0.0 6.4 0.00 0.00 0.00 82 1008.1
20260506153533 13 258 3.2 6.4 0.00 0.00 0.00 83 1008.0
20260506153056 13 214 0.0 4.8 0.00 0.00 0.00 84 1007.8
20260506152541 12 228 0.0 4.8 0.00 0.00 0.00 84 1007.9
20260506152026 12 316 0.0 6.4 0.00 0.00 0.00 85 1008.3
20260506151547 12 5 0.0 6.4 0.00 0.00 0.00 85 1008.5
20260506151014 12 263 0.0 8.0 0.00 0.00 0.00 85 1008.6
20260506150554 12 283 1.6 8.0 0.00 0.00 0.00 85 1008.7
20260506150012 12 73 0.0 9.7 0.00 0.00 0.00 86 1008.7
20260506145604 12 33 3.2 9.7 0.00 0.00 0.00 86 1008.8
20260506145054 12 246 0.0 6.4 0.00 0.00 0.00 86 1008.6
20260506144518 12 244 0.0 6.4 0.00 0.00 0.00 86 1008.6
20260506144107 12 5 0.0 4.8 0.00 0.00 0.00 86 1008.6
20260506143547 12 286 0.0 4.8 0.00 0.00 0.00 86 1008.5
20260506143007 12 293 1.6 3.2 0.00 0.00 0.00 87 1008.4
20260506142557 12 320 0.0 6.4 0.00 0.00 0.00 87 1008.4
20260506142041 12 320 1.6 6.4 0.00 0.00 0.00 87 1008.2
20260506141508 12 294 0.0 0.0 0.00 0.00 0.00 87 1008.0
20260506141054 12 294 0.0 0.0 0.00 0.00 0.00 87 1008.0
20260506140542 12 294 0.0 0.0 0.00 0.00 0.00 87 1007.6
20260506140002 12 292 0.0 0.0 0.00 0.00 0.00 87 1007.6
20260506135551 12 292 0.0 0.0 0.00 0.00 0.00 86 1007.6
20260506135038 12 292 0.0 0.0 0.00 0.00 0.00 86 1007.5
20260506134511 12 292 0.0 0.0 0.00 0.00 0.00 86 1007.5
20260506134059 12 292 0.0 0.0 0.00 0.00 0.00 86 1007.5
20260506133548 12 292 0.0 0.0 0.00 0.00 0.00 86 1007.5
20260506133012 12 292 0.0 0.0 0.00 0.00 0.00 85 1007.5
20260506132557 12 292 0.0 0.0 0.00 0.00 0.00 85 1007.4
20260506132039 12 292 0.0 0.0 0.00 0.00 0.00 85 1007.4
20260506131506 12 292 0.0 0.0 0.00 0.00 0.00 85 1007.4
20260506131059 12 292 0.0 0.0 0.00 0.00 0.00 85 1007.3
20260506130544 13 292 0.0 0.0 0.00 0.00 0.00 85 1007.2
20260506130009 13 292 0.0 0.0 0.00 0.00 0.00 85 1007.1
20260506125554 13 292 0.0 0.0 0.00 0.00 0.00 85 1007.0
20260506125040 13 292 0.0 0.0 0.00 0.00 0.00 85 1007.1
20260506124501 13 292 0.0 0.0 0.00 0.00 0.00 85 1007.1
20260506124051 13 292 0.0 0.0 0.00 0.00 0.00 85 1007.0
20260506123539 13 292 0.0 0.0 0.00 0.00 0.00 85 1006.9
20260506123100 13 292 0.0 0.0 0.00 0.00 0.00 85 1006.9
20260506122547 13 292 0.0 1.6 0.00 0.00 0.00 85 1006.9
20260506122036 13 292 0.0 1.6 0.00 0.00 0.00 85 1006.9
20260506121600 13 292 0.0 0.0 0.00 0.00 0.00 85 1007.0
20260506121049 13 292 0.0 0.0 0.00 0.00 0.00 85 1007.1
20260506120537 13 292 0.0 1.6 0.00 0.00 0.00 85 1007.1
20260506120058 13 292 0.0 0.0 0.00 0.00 0.00 85 1007.1
20260506115546 13 292 0.0 1.6 0.00 0.00 0.00 85 1007.1
20260506115035 13 292 0.0 4.8 0.00 0.00 0.00 85 1007.0
20260506114558 13 292 0.0 4.8 0.00 0.00 0.00 85 1006.9
20260506114046 13 292 0.0 4.8 0.00 0.00 0.00 85 1006.9
20260506113535 13 292 0.0 4.8 0.00 0.00 0.00 85 1006.8
20260506113058 13 14 0.0 6.4 0.00 0.00 0.00 85 1006.9
20260506112547 13 14 1.6 6.4 0.00 0.00 0.00 85 1006.8
20260506112034 13 348 0.0 0.0 0.00 0.00 0.00 85 1006.7
20260506111557 13 348 0.0 0.0 0.00 0.00 0.00 85 1006.7
20260506111046 13 348 0.0 0.0 0.00 0.00 0.00 85 1006.7
20260506110538 13 348 0.0 0.0 0.00 0.00 0.00 85 1006.5
20260506110008 13 348 0.0 0.0 0.00 0.00 0.00 85 1006.5
20260506105554 13 348 0.0 0.0 0.00 0.00 0.00 85 1006.4
20260506105041 13 348 0.0 0.0 0.00 0.00 0.00 85 1006.2
20260506104502 13 348 0.0 0.0 0.00 0.00 0.00 85 1006.2
20260506104052 13 348 0.0 0.0 0.00 0.00 0.00 85 1006.1
20260506103541 13 348 0.0 0.0 0.00 0.00 0.00 85 1006.0
20260506103003 13 348 0.0 0.0 0.00 0.00 0.00 85 1005.9
20260506102552 13 348 0.0 0.0 0.00 0.00 0.00 85 1005.9
20260506102040 13 348 0.0 0.0 0.00 0.00 0.00 85 1005.8
20260506101603 13 348 0.0 0.0 0.00 0.00 0.00 85 1005.9
20260506101051 13 348 0.0 0.0 0.00 0.00 0.00 85 1005.7
20260506100540 13 348 0.0 0.0 0.00 0.00 0.00 86 1005.7
20260506100100 13 348 0.0 0.0 0.00 0.00 0.00 86 1005.7
20260506095549 13 348 0.0 0.0 0.00 0.00 0.00 86 1005.8
20260506095037 13 348 0.0 0.0 0.00 0.00 0.00 85 1005.7
20260506094607 13 348 0.0 0.0 0.00 0.00 0.00 85 1005.7
20260506094046 13 348 0.0 0.0 0.00 0.00 0.00 85 1005.7
20260506093534 13 348 0.0 0.0 0.00 0.00 0.00 85 1005.6
20260506093058 13 348 0.0 0.0 0.00 0.00 0.00 85 1005.5
20260506092546 13 348 0.0 0.0 0.00 0.00 0.00 85 1005.6
20260506092035 13 348 0.0 0.0 0.00 0.00 0.00 85 1005.6
20260506091606 13 348 0.0 0.0 0.00 0.00 0.00 85 1005.5
20260506091045 13 348 0.0 0.0 0.00 0.00 0.00 85 1005.5
20260506090533 13 348 0.0 0.0 0.00 0.00 0.00 85 1005.5
20260506090058 13 348 0.0 0.0 0.00 0.00 0.00 85 1005.5
20260506085542 13 348 0.0 0.0 0.00 0.00 0.00 85 1005.5
20260506085031 13 348 0.0 0.0 0.00 0.00 0.00 85 1005.4
20260506084614 13 348 0.0 0.0 0.00 0.00 0.00 85 1005.4
20260506084043 13 348 0.0 0.0 0.00 0.00 0.00 85 1005.4
20260506083532 13 348 0.0 0.0 0.00 0.00 0.00 85 1005.4
20260506083055 13 348 0.0 0.0 0.00 0.00 0.00 85 1005.4
20260506082542 13 348 0.0 0.0 0.00 0.00 0.00 85 1005.4
20260506082031 13 348 0.0 0.0 0.00 0.00 0.00 85 1005.4
20260506081556 13 348 0.0 0.0 0.00 0.00 0.00 85 1005.4
20260506081042 13 348 0.0 0.0 0.00 0.00 0.00 85 1005.4
20260506080531 13 348 0.0 0.0 0.00 0.00 0.00 85 1005.4
20260506073059 14 348 0.0 0.0 0.00 0.00 0.00 85 1005.1
20260506072540 14 348 0.0 0.0 0.00 0.00 0.00 85 1005.1
20260506072028 14 348 0.0 0.0 0.00 0.00 0.00 85 1005.0
20260506071554 14 348 0.0 0.0 0.00 0.00 0.00 85 1004.9
20260506071040 14 348 0.0 0.0 0.00 0.00 0.00 85 1004.9
20260506070528 14 348 0.0 0.0 0.00 0.00 0.00 85 1004.9
20260506062516 13 348 0.0 0.0 0.00 0.00 0.00 85 1004.8
20260506062058 13 348 0.0 0.0 0.00 0.00 0.00 85 1004.7
20260506061538 13 348 0.0 0.0 0.00 0.00 0.00 85 1004.7
20260506061100 13 348 0.0 0.0 0.00 0.00 0.00 85 1004.7
20260506060549 13 348 0.0 0.0 0.00 0.00 0.00 85 1004.6
20260506051008 13 348 0.0 0.0 0.00 0.00 0.00 84 1004.5
20260506050556 13 348 0.0 0.0 0.00 0.00 0.00 84 1004.4
20260506045056 13 348 0.0 0.0 0.00 0.00 0.00 84 1004.4
20260506044522 13 348 0.0 0.0 0.00 0.00 0.00 83 1004.3
20260506044007 13 348 0.0 0.0 0.00 0.00 0.00 83 1004.3
20260506043556 13 348 0.0 0.0 0.00 0.00 0.00 83 1004.3
20260506043036 13 348 0.0 0.0 0.00 0.00 0.00 83 1004.2
20260506042511 13 348 0.0 0.0 0.00 0.00 0.00 82 1004.2
20260506042102 13 348 0.0 0.0 0.00 0.00 0.00 82 1004.1
20260506041526 13 348 0.0 0.0 0.00 0.00 0.00 81 1004.1
20260506041011 13 348 0.0 0.0 0.00 0.00 0.00 81 1004.0
20260506040552 14 348 0.0 0.0 0.00 0.00 0.00 81 1004.0
20260506040107 14 348 0.0 0.0 0.00 0.00 0.00 81 1004.0
20260506035540 14 348 0.0 0.0 0.00 0.00 0.00 80 1003.9
20260506035026 14 348 0.0 0.0 0.00 0.00 0.00 80 1003.9
20260506034549 14 348 0.0 0.0 0.00 0.00 0.00 80 1003.7
20260506034027 15 348 0.0 0.0 0.00 0.00 0.00 79 1003.5
20260506033511 15 348 0.0 0.0 0.00 0.00 0.00 79 1003.5
20260506033038 15 348 0.0 0.0 0.00 0.00 0.00 79 1003.5
20260506032521 15 348 0.0 0.0 0.00 0.00 0.00 79 1003.6
20260506032009 15 348 0.0 0.0 0.00 0.00 0.00 78 1003.5
20260506031548 15 348 0.0 0.0 0.00 0.00 0.00 78 1003.5
20260506031028 15 348 0.0 0.0 0.00 0.00 0.00 78 1003.5
20260506030517 15 348 0.0 0.0 0.00 0.00 0.00 77 1003.4
20260506030035 15 348 0.0 0.0 0.00 0.00 0.00 78 1003.4
20260506025523 16 348 0.0 0.0 0.00 0.00 0.00 76 1003.3
20260506025012 16 348 0.0 0.0 0.00 0.00 0.00 76 1003.2
20260506024541 16 348 0.0 0.0 0.00 0.00 0.00 76 1003.2
20260506024015 16 348 0.0 0.0 0.00 0.00 0.00 75 1003.1
20260506023502 16 348 0.0 1.6 0.00 0.00 0.00 74 1003.1
20260506023022 16 348 0.0 1.6 0.00 0.00 0.00 74 1003.2
20260506022513 16 350 0.0 1.6 0.00 0.00 0.00 74 1003.0
20260506022058 16 350 0.0 1.6 0.00 0.00 0.00 73 1003.0
20260506021529 17 350 0.0 1.6 0.00 0.00 0.00 72 1003.1
20260506021019 17 355 0.0 3.2 0.00 0.00 0.00 72 1003.2
20260506020502 17 346 0.0 3.2 0.00 0.00 0.00 72 1003.2
20260506020023 17 355 0.0 4.8 0.00 0.00 0.00 71 1003.2
20260506015514 17 24 1.6 4.8 0.00 0.00 0.00 70 1003.2
20260506015103 17 34 0.0 3.2 0.00 0.00 0.00 70 1003.1
20260506014518 17 355 0.0 0.0 0.00 0.00 0.00 69 1003.1
20260506014004 18 355 0.0 4.8 0.00 0.00 0.00 69 1003.1
20260506013555 18 355 1.6 6.4 0.00 0.00 0.00 69 1003.1
20260506013026 18 34 3.2 6.4 0.00 0.00 0.00 69 1003.1
20260506012514 18 70 1.6 6.4 0.00 0.00 0.00 68 1003.1
20260506012002 18 360 3.2 8.0 0.00 0.00 0.00 69 1003.1
20260506011530 18 44 3.2 8.0 0.00 0.00 0.00 69 1003.1
20260506011015 18 30 4.8 8.0 0.00 0.00 0.00 69 1003.2
20260506010502 18 342 3.2 4.8 0.00 0.00 0.00 69 1003.2
20260506010024 17 301 1.6 8.0 0.00 0.00 0.00 68 1003.2
20260506005508 17 17 1.6 9.7 0.00 0.00 0.00 69 1003.2
20260506005054 17 346 3.2 8.0 0.00 0.00 0.00 72 1003.1
20260506004515 18 59 4.8 9.7 0.00 0.00 0.00 68 1003.1
20260506004004 18 44 3.2 9.7 0.00 0.00 0.00 69 1003.2
20260506003557 18 10 0.0 4.8 0.00 0.00 0.00 68 1003.1
20260506003015 17 34 0.0 1.6 0.00 0.00 0.00 69 1003.1
20260506002503 17 5 0.0 0.0 0.00 0.00 0.00 70 1003.1
20260506002052 17 5 0.0 0.0 0.00 0.00 0.00 72 1003.2
20260506001509 17 317 0.0 0.0 0.00 0.00 0.00 70 1003.2
20260506001100 18 42 0.0 1.6 0.00 0.00 0.00 69 1003.3
20260506000547 18 44 0.0 6.4 0.00 0.00 0.00 70 1003.4
20260506000014 18 30 3.2 6.4 0.00 0.00 0.00 69 1003.3
20260505235503 18 29 1.6 4.8 0.00 0.00 0.00 70 1003.4
20260505235053 18 63 1.6 6.4 0.00 0.00 0.00 69 1003.4
20260505234517 18 296 1.6 6.4 0.00 0.00 0.00 70 1003.4
20260505234056 18 294 1.6 6.4 0.00 0.00 0.00 69 1003.5
20260505233543 17 5 0.0 4.8 0.00 0.00 0.00 69 1003.5
20260505233101 17 355 0.0 6.4 0.00 0.00 0.00 69 1003.6
20260505232548 17 44 1.6 8.0 0.00 0.00 0.00 69 1003.7
20260505232041 17 279 1.6 8.0 0.00 0.00 0.00 70 1003.6
20260505231608 17 360 0.0 9.7 0.00 0.00 0.00 70 1003.7
20260505231047 17 334 4.8 9.7 0.00 0.00 0.00 72 1003.6
20260505230535 17 46 4.8 9.7 0.00 0.00 0.00 72 1003.7
20260505230004 17 307 1.6 8.0 0.00 0.00 0.00 71 1003.7
20260505225554 17 319 3.2 9.7 0.00 0.00 0.00 71 1003.8
20260505225043 17 9 3.2 9.7 0.00 0.00 0.00 71 1003.8
20260505224503 17 296 4.8 8.0 0.00 0.00 0.00 72 1003.8
20260505224054 17 77 1.6 9.7 0.00 0.00 0.00 73 1003.8
20260505223542 17 45 4.8 9.7 0.00 0.00 0.00 72 1003.9
20260505223011 17 74 3.2 6.4 0.00 0.00 0.00 71 1003.8
20260505222605 17 198 1.6 8.0 0.00 0.00 0.00 71 1003.9
20260505222051 17 256 3.2 11.3 0.00 0.00 0.00 72 1003.9
20260505221510 17 286 3.2 8.0 0.00 0.00 0.00 71 1003.9
20260505221059 16 82 1.6 6.4 0.00 0.00 0.00 72 1004.0
20260505220548 16 49 1.6 6.4 0.00 0.00 0.00 71 1004.1
20260505220016 16 21 1.6 6.4 0.00 0.00 0.00 70 1004.1
20260505215503 16 161 3.2 4.8 0.00 0.00 0.00 74 1004.0
20260505215053 16 313 0.0 3.2 0.00 0.00 0.00 72 1004.0
20260505214523 16 313 0.0 4.8 0.00 0.00 0.00 72 1004.2
20260505214002 16 313 3.2 8.0 0.00 0.00 0.00 73 1004.2
20260505213554 16 292 0.0 8.0 0.00 0.00 0.00 73 1004.2
20260505213018 16 299 4.8 9.7 0.00 0.00 0.00 74 1004.1
20260505212503 16 5 1.6 4.8 0.00 0.00 0.00 74 1004.2
20260505212053 16 19 1.6 8.0 0.00 0.00 0.00 74 1004.1
20260505211513 16 104 3.2 9.7 0.00 0.00 0.00 75 1004.2
20260505211002 16 31 3.2 6.4 0.00 0.00 0.00 74 1004.2
20260505210551 16 39 3.2 9.7 0.00 0.00 0.00 73 1004.2
20260505210010 16 41 3.2 9.7 0.00 0.00 0.00 74 1004.2
20260505205601 16 5 1.6 9.7 0.00 0.00 0.00 72 1004.3
20260505205050 16 355 4.8 9.7 0.00 0.00 0.00 73 1004.2
20260505204517 16 328 3.2 9.7 0.00 0.00 0.00 74 1004.3
20260505204002 16 328 1.6 4.8 0.00 0.00 0.00 74 1004.3
20260505203551 16 325 1.6 4.8 0.00 0.00 0.00 73 1004.3
20260505203012 16 338 3.2 6.4 0.00 0.00 0.00 72 1004.3
20260505202604 16 24 3.2 6.4 0.00 0.00 0.00 73 1004.4
20260505202050 16 32 1.6 4.8 0.00 0.00 0.00 73 1004.4